Total_Precipitation_Accumulation
1.25 1.38 1.47 1.78 2.09 2.32 2.55 2.77 2.92 2.99 3.28 3.49 3.49 3.42 3.32 3.09 2.99 3.00 2.95 2.84 2.77 2.89 2.93 2.75 2.61 2.64 2.56 2.44 2.39 2.38 2.45 2.37 2.20 2.24 2.17 1.98 1.74 1.55 1.37 1.24 1.19 1.14 1.12
1.12 1.27 1.37 1.55 1.80 2.08 2.38 2.65 2.83 2.94 2.94 3.00 3.25 3.44 3.56 3.43 3.13 2.99 2.96 2.87 2.78 2.78 2.83 2.87 2.81 2.71 2.63 2.57 2.57 2.58 2.65 2.69 2.64 2.62 2.62 2.50 2.34 1.90 1.52 1.38 1.31 1.23 1.22
0.98 1.12 1.27 1.52 1.68 1.85 2.14 2.48 2.68 2.88 2.90 2.92 3.22 3.49 3.66 3.56 3.25 2.86 2.74 2.80 2.78 2.78 2.70 2.72 2.83 2.83 2.73 2.59 2.55 2.56 2.61 2.68 2.69 2.67 2.82 2.60 2.23 1.86 1.64 1.41 1.29 1.27 1.29
0.85 0.92 1.07 1.29 1.48 1.67 1.87 2.10 2.34 2.58 2.84 2.96 3.05 3.13 3.23 3.22 2.96 2.82 2.71 2.79 2.83 2.80 2.75 2.71 2.76 2.79 2.73 2.60 2.54 2.49 2.53 2.62 2.66 2.65 2.57 2.40 2.01 1.81 1.74 1.57 1.39 1.34 1.34
0.84 0.87 1.03 1.23 1.34 1.51 1.78 1.95 2.06 2.31 2.60 2.82 2.88 3.08 3.07 3.06 3.08 3.04 2.94 2.85 2.84 2.77 2.73 2.69 2.70 2.68 2.62 2.58 2.64 2.59 2.59 2.63 2.61 2.54 2.45 2.42 2.16 1.85 1.78 1.68 1.53 1.51 1.42
0.90 0.98 1.13 1.22 1.28 1.40 1.63 1.85 1.89 2.02 2.21 2.54 2.83 2.93 2.93 2.98 2.97 2.92 2.83 2.80 2.81 2.76 2.66 2.58 2.53 2.51 2.55 2.59 2.63 2.69 2.65 2.66 2.68 2.61 2.47 2.45 2.40 2.13 1.98 1.87 1.65 1.65 1.57
0.85 0.96 1.09 1.11 1.17 1.30 1.48 1.67 1.78 1.90 2.00 2.20 2.50 2.75 2.88 2.96 2.98 2.93 2.84 2.69 2.60 2.50 2.44 2.45 2.41 2.36 2.30 2.37 2.53 2.66 2.67 2.62 2.64 2.63 2.58 2.50 2.38 2.19 2.13 2.13 1.98 1.88 1.80
0.74 0.79 0.93 1.02 1.10 1.21 1.32 1.42 1.51 1.59 1.68 1.78 1.95 2.25 2.60 2.78 2.76 2.77 2.72 2.61 2.46 2.41 2.39 2.39 2.36 2.35 2.33 2.29 2.36 2.49 2.58 2.60 2.55 2.44 2.42 2.42 2.36 2.34 2.30 2.26 2.33 2.31 2.09
0.78 0.76 0.84 0.91 0.97 1.10 1.25 1.27 1.33 1.40 1.51 1.58 1.67 1.82 2.13 2.36 2.44 2.48 2.45 2.36 2.28 2.29 2.30 2.32 2.34 2.36 2.38 2.34 2.35 2.40 2.41 2.46 2.49 2.44 2.36 2.30 2.21 2.23 2.23 2.20 2.27 2.49 2.43
0.77 0.74 0.79 0.85 0.87 0.97 1.12 1.16 1.23 1.33 1.48 1.56 1.62 1.69 1.81 1.95 2.15 2.27 2.19 2.15 2.12 2.13 2.12 2.11 2.12 2.13 2.20 2.25 2.28 2.27 2.25 2.26 2.28 2.32 2.36 2.31 2.20 2.20 2.27 2.34 2.34 2.38 2.44
0.79 0.82 0.84 0.88 0.92 0.99 1.05 1.08 1.16 1.27 1.43 1.52 1.54 1.55 1.61 1.68 1.81 1.93 1.99 1.94 1.98 2.00 1.98 1.93 1.94 1.92 1.94 2.01 2.11 2.11 2.12 2.18 2.16 2.19 2.24 2.25 2.21 2.22 2.26 2.36 2.43 2.47 2.53
0.74 0.82 0.83 0.86 0.95 1.01 1.02 0.99 1.03 1.11 1.27 1.36 1.37 1.40 1.45 1.54 1.63 1.70 1.79 1.80 1.81 1.85 1.89 1.85 1.83 1.82 1.78 1.80 1.87 1.92 1.96 2.01 2.03 2.05 2.11 2.15 2.17 2.22 2.23 2.34 2.37 2.33 2.29
0.59 0.66 0.72 0.74 0.80 0.84 0.88 0.94 0.94 0.93 1.01 1.09 1.11 1.16 1.20 1.30 1.45 1.52 1.55 1.61 1.65 1.67 1.71 1.77 1.73 1.72 1.71 1.76 1.76 1.75 1.78 1.82 1.85 1.88 1.93 1.93 1.99 2.06 2.07 2.14 2.23 2.20 2.17
0.53 0.59 0.67 0.66 0.71 0.76 0.77 0.85 0.85 0.84 0.91 0.95 0.96 1.00 1.04 1.09 1.20 1.31 1.37 1.41 1.45 1.49 1.52 1.59 1.60 1.57 1.59 1.67 1.72 1.76 1.77 1.74 1.74 1.76 1.82 1.86 1.89 1.89 1.93 2.03 2.08 2.11 2.17
0.49 0.55 0.66 0.70 0.69 0.76 0.78 0.78 0.85 0.90 0.97 0.99 0.99 0.98 0.97 0.99 1.06 1.16 1.24 1.30 1.33 1.31 1.29 1.33 1.39 1.45 1.49 1.57 1.64 1.73 1.78 1.77 1.75 1.75 1.79 1.86 2.04 2.08 2.06 2.07 2.03 2.07 2.19
0.45 0.48 0.58 0.74 0.70 0.77 0.87 0.87 0.93 1.02 1.05 1.08 1.03 1.01 0.96 0.95 0.96 1.00 1.05 1.12 1.21 1.24 1.26 1.28 1.27 1.32 1.40 1.73 1.82 1.77 1.80 1.83 1.81 1.77 1.73 1.78 1.96 1.94 1.99 2.02 2.03 2.11 2.24
0.42 0.46 0.52 0.69 0.78 0.82 0.94 1.02 1.05 1.12 1.11 1.12 1.05 0.99 0.94 0.92 0.92 0.93 0.97 1.04 1.11 1.20 1.29 1.33 1.34 1.35 1.48 1.78 1.83 1.94 1.86 1.83 1.79 1.72 1.67 1.63 1.60 1.68 1.52 1.64 1.83 1.91 1.95
0.38 0.42 0.48 0.54 0.67 0.73 0.84 0.96 1.04 1.15 1.17 1.16 1.15 1.11 1.08 1.08 1.11 1.12 1.16 1.20 1.20 1.27 1.40 1.48 1.52 1.56 1.65 1.78 1.74 1.84 1.70 1.65 1.60 1.53 1.50 1.46 1.39 1.39 1.46 1.52 1.64 1.54 1.49
0.38 0.39 0.42 0.45 0.52 0.61 0.69 0.82 1.00 1.17 1.29 1.36 1.37 1.38 1.39 1.41 1.42 1.44 1.44 1.46 1.49 1.53 1.55 1.58 1.55 1.54 1.58 1.66 1.63 1.65 1.54 1.53 1.44 1.34 1.33 1.34 1.28 1.44 1.66 1.70 1.63 1.46 1.40
0.39 0.39 0.40 0.42 0.46 0.58 0.67 0.82 1.05 1.26 1.41 1.47 1.50 1.52 1.59 1.64 1.59 1.54 1.50 1.44 1.42 1.47 1.49 1.51 1.50 1.44 1.40 1.47 1.48 1.50 1.43 1.39 1.27 1.21 1.21 1.31 1.30 1.53 1.75 1.71 1.64 1.51 1.28
0.47 0.48 0.50 0.54 0.58 0.64 0.75 0.93 1.09 1.25 1.35 1.39 1.42 1.44 1.42 1.43 1.39 1.35 1.30 1.27 1.25 1.22 1.20 1.18 1.16 1.15 1.21 1.30 1.35 1.43 1.45 1.46 1.38 1.27 1.24 1.25 1.42 1.58 1.71 1.75 1.62 1.52 1.45
0.47 0.56 0.64 0.69 0.70 0.73 0.83 0.93 1.00 1.05 1.07 1.10 1.13 1.14 1.08 1.01 1.02 1.05 1.05 1.04 1.05 1.04 1.01 0.97 0.97 0.96 1.02 1.16 1.26 1.40 1.52 1.56 1.54 1.38 1.25 1.32 1.57 1.69 1.74 1.72 1.67 1.72 1.77
0.32 0.38 0.47 0.54 0.55 0.56 0.62 0.69 0.68 0.67 0.68 0.71 0.78 0.81 0.80 0.77 0.76 0.81 0.85 0.88 0.91 0.93 0.93 0.91 0.92 0.91 0.90 1.00 1.15 1.27 1.46 1.58 1.51 1.37 1.41 1.53 1.65 1.71 1.70 1.72 1.72 1.67 1.59
0.25 0.28 0.31 0.35 0.37 0.38 0.40 0.45 0.45 0.42 0.45 0.52 0.59 0.67 0.72 0.74 0.74 0.76 0.80 0.84 0.87 0.90 0.91 0.92 0.92 0.88 0.85 0.92 1.06 1.22 1.35 1.51 1.52 1.49 1.52 1.57 1.59 1.59 1.60 1.65 1.67 1.61 1.55
0.27 0.29 0.32 0.33 0.35 0.35 0.36 0.38 0.40 0.39 0.41 0.45 0.51 0.58 0.66 0.73 0.75 0.75 0.78 0.85 0.86 0.99 1.19 1.20 1.12 1.14 1.13 1.08 1.30 1.52 1.55 1.58 1.65 1.72 1.71 1.61 1.55 1.56 1.55 1.50 1.50 1.54 1.58
0.30 0.30 0.32 0.36 0.39 0.41 0.43 0.43 0.45 0.45 0.46 0.48 0.50 0.57 0.64 0.70 0.75 0.78 0.80 0.85 0.89 0.96 1.05 1.13 1.21 1.18 1.22 1.30 1.42 1.47 1.53 1.63 1.77 1.88 1.80 1.56 1.43 1.39 1.39 1.43 1.46 1.48 1.50